Year,Month,Day,Hour,Minute,Value (Times are PST for temperature in C)
2015,07,11,00,00,14.00
2015,07,11,00,01,14.00
2015,07,11,00,02,14.00
2015,07,11,00,03,14.00
2015,07,11,00,04,14.00
2015,07,11,00,05,14.00
2015,07,11,00,06,14.00
2015,07,11,00,07,13.90
2015,07,11,00,08,13.90
2015,07,11,00,09,13.90
2015,07,11,00,10,13.90
2015,07,11,00,11,13.90
2015,07,11,00,12,13.90
2015,07,11,00,13,13.90
2015,07,11,00,14,13.90
2015,07,11,00,15,13.90
2015,07,11,00,16,13.90
2015,07,11,00,17,13.90
2015,07,11,00,18,13.90
2015,07,11,00,19,13.90
2015,07,11,00,20,13.90
2015,07,11,00,21,13.90
2015,07,11,00,22,13.90
2015,07,11,00,23,13.90
2015,07,11,00,24,13.90
2015,07,11,00,25,13.90
2015,07,11,00,26,13.90
2015,07,11,00,27,13.90
2015,07,11,00,28,13.90
2015,07,11,00,29,13.90
2015,07,11,00,30,13.90
2015,07,11,00,31,13.90
2015,07,11,00,32,13.90
2015,07,11,00,33,13.90
2015,07,11,00,34,13.90
2015,07,11,00,35,13.90
2015,07,11,00,36,13.90
2015,07,11,00,37,13.90
2015,07,11,00,38,13.90
2015,07,11,00,39,13.90
2015,07,11,00,40,13.90
2015,07,11,00,41,13.90
2015,07,11,00,42,13.90
2015,07,11,00,43,13.90
2015,07,11,00,44,13.90
2015,07,11,00,45,13.90
2015,07,11,00,46,13.90
2015,07,11,00,47,13.90
2015,07,11,00,48,13.90
2015,07,11,00,49,13.90
2015,07,11,00,50,13.90
2015,07,11,00,51,13.90
2015,07,11,00,52,13.90
2015,07,11,00,53,13.90
2015,07,11,00,54,13.90
2015,07,11,00,55,13.90
2015,07,11,00,56,13.90
2015,07,11,00,57,13.90
2015,07,11,00,58,13.90
2015,07,11,00,59,13.90
2015,07,11,01,00,13.90
2015,07,11,01,01,13.90
2015,07,11,01,02,13.90
2015,07,11,01,03,13.90
2015,07,11,01,04,13.90
2015,07,11,01,05,13.90
2015,07,11,01,06,13.90
2015,07,11,01,07,13.90
2015,07,11,01,08,13.90
2015,07,11,01,09,13.90
2015,07,11,01,10,13.90
2015,07,11,01,11,13.90
2015,07,11,01,12,13.90
2015,07,11,01,13,13.90
2015,07,11,01,14,13.90
2015,07,11,01,15,13.90
2015,07,11,01,16,13.90
2015,07,11,01,17,13.90
2015,07,11,01,18,13.90
2015,07,11,01,19,13.90
2015,07,11,01,20,13.90
2015,07,11,01,21,13.90
2015,07,11,01,22,13.90
2015,07,11,01,23,13.90
2015,07,11,01,24,13.90
2015,07,11,01,25,13.90
2015,07,11,01,26,13.90
2015,07,11,01,27,13.90
2015,07,11,01,28,13.90
2015,07,11,01,29,13.90
2015,07,11,01,30,13.90
2015,07,11,01,31,13.90
2015,07,11,01,32,13.90
2015,07,11,01,33,13.90
2015,07,11,01,34,13.90
2015,07,11,01,35,13.90
2015,07,11,01,36,13.90
2015,07,11,01,37,13.90
2015,07,11,01,38,13.90
2015,07,11,01,39,13.90
2015,07,11,01,40,13.90
2015,07,11,01,41,14.00
2015,07,11,01,42,14.00
2015,07,11,01,43,14.00
2015,07,11,01,44,14.00
2015,07,11,01,45,14.00
2015,07,11,01,46,14.10
2015,07,11,01,47,14.10
2015,07,11,01,48,14.10
2015,07,11,01,49,14.10
2015,07,11,01,50,14.10
2015,07,11,01,51,14.10
2015,07,11,01,52,14.10
2015,07,11,01,53,14.10
2015,07,11,01,54,14.10
2015,07,11,01,55,14.10
2015,07,11,01,56,14.10
2015,07,11,01,57,14.20
2015,07,11,01,58,14.10
2015,07,11,01,59,14.10
2015,07,11,02,00,14.20
2015,07,11,02,01,14.20
2015,07,11,02,02,14.20
2015,07,11,02,03,14.20
2015,07,11,02,04,14.20
2015,07,11,02,05,14.20
2015,07,11,02,06,14.20
2015,07,11,02,07,14.20
2015,07,11,02,08,14.20
2015,07,11,02,09,14.20
2015,07,11,02,10,14.20
2015,07,11,02,11,14.10
2015,07,11,02,12,14.10
2015,07,11,02,13,14.10
2015,07,11,02,14,14.10
2015,07,11,02,15,14.10
2015,07,11,02,16,14.10
2015,07,11,02,17,14.10
2015,07,11,02,18,14.10
2015,07,11,02,19,14.10
2015,07,11,02,20,14.10
2015,07,11,02,21,14.10
2015,07,11,02,22,14.10
2015,07,11,02,23,14.10
2015,07,11,02,24,14.10
2015,07,11,02,25,14.10
2015,07,11,02,26,14.10
2015,07,11,02,27,14.10
2015,07,11,02,28,14.10
2015,07,11,02,29,14.10
2015,07,11,02,30,14.10
2015,07,11,02,31,14.10
2015,07,11,02,32,14.10
2015,07,11,02,33,14.10
2015,07,11,02,34,14.10
2015,07,11,02,35,14.10
2015,07,11,02,36,14.00
2015,07,11,02,37,14.00
2015,07,11,02,38,14.00
2015,07,11,02,39,14.00
2015,07,11,02,40,14.00
2015,07,11,02,41,14.00
2015,07,11,02,42,14.00
2015,07,11,02,43,14.00
2015,07,11,02,44,14.00
2015,07,11,02,45,14.00
2015,07,11,02,46,14.00
2015,07,11,02,47,14.00
2015,07,11,02,48,14.00
2015,07,11,02,49,14.00
2015,07,11,02,50,14.00
2015,07,11,02,51,14.00
2015,07,11,02,52,14.00
2015,07,11,02,53,14.00
2015,07,11,02,54,14.00
2015,07,11,02,55,14.00
2015,07,11,02,56,14.00
2015,07,11,02,57,14.00
2015,07,11,02,58,14.00
2015,07,11,02,59,14.00
2015,07,11,03,00,14.10
2015,07,11,03,01,14.10
2015,07,11,03,02,14.10
2015,07,11,03,03,14.10
2015,07,11,03,04,14.10
2015,07,11,03,05,14.10
2015,07,11,03,06,14.10
2015,07,11,03,07,14.10
2015,07,11,03,08,14.10
2015,07,11,03,09,14.10
2015,07,11,03,10,14.10
2015,07,11,03,11,14.10
2015,07,11,03,12,14.10
2015,07,11,03,13,14.10
2015,07,11,03,14,14.10
2015,07,11,03,15,14.10
2015,07,11,03,16,14.10
2015,07,11,03,17,14.10
2015,07,11,03,18,14.10
2015,07,11,03,19,14.20
2015,07,11,03,20,14.20
2015,07,11,03,21,14.20
2015,07,11,03,22,14.20
2015,07,11,03,23,14.20
2015,07,11,03,24,14.20
2015,07,11,03,25,14.20
2015,07,11,03,26,14.20
2015,07,11,03,27,14.20
2015,07,11,03,28,14.20
2015,07,11,03,29,14.20
2015,07,11,03,30,14.20
2015,07,11,03,31,14.30
2015,07,11,03,32,14.30
2015,07,11,03,33,14.30
2015,07,11,03,34,14.30
2015,07,11,03,35,14.30
2015,07,11,03,36,14.30
2015,07,11,03,37,14.30
2015,07,11,03,38,14.30
2015,07,11,03,39,14.30
2015,07,11,03,40,14.30
2015,07,11,03,41,14.30
2015,07,11,03,42,14.30
2015,07,11,03,43,14.30
2015,07,11,03,44,14.30
2015,07,11,03,45,14.30
2015,07,11,03,46,14.30
2015,07,11,03,47,14.30
2015,07,11,03,48,14.30
2015,07,11,03,49,14.30
2015,07,11,03,50,14.30
2015,07,11,03,51,14.30
2015,07,11,03,52,14.30
2015,07,11,03,53,14.30
2015,07,11,03,54,14.30
2015,07,11,03,55,14.30
2015,07,11,03,56,14.30
2015,07,11,03,57,14.40
2015,07,11,03,58,14.40
2015,07,11,03,59,14.40
2015,07,11,04,00,14.40
2015,07,11,04,01,14.40
2015,07,11,04,02,14.40
2015,07,11,04,03,14.40
2015,07,11,04,04,14.40
2015,07,11,04,05,14.50
2015,07,11,04,06,14.50
2015,07,11,05,02,14.80
2015,07,11,05,03,14.80
2015,07,11,05,04,14.80
2015,07,11,05,05,14.80
2015,07,11,05,06,14.80
2015,07,11,05,07,14.80
2015,07,11,05,08,14.80
2015,07,11,05,09,14.80
2015,07,11,05,10,14.80
2015,07,11,05,11,14.90
2015,07,11,05,12,14.90
2015,07,11,05,13,14.90
2015,07,11,05,14,14.90
2015,07,11,05,15,14.90
2015,07,11,05,16,14.90
2015,07,11,05,17,15.00
2015,07,11,05,18,15.00
2015,07,11,05,19,15.00
2015,07,11,05,20,15.00
2015,07,11,05,21,15.00
2015,07,11,05,22,15.10
2015,07,11,05,23,15.10
2015,07,11,05,24,15.10
2015,07,11,05,25,15.10
2015,07,11,05,26,15.10
2015,07,11,05,27,15.10
2015,07,11,05,28,15.10
2015,07,11,05,29,15.10
2015,07,11,05,30,15.10
2015,07,11,05,31,15.10
2015,07,11,05,32,15.10
2015,07,11,05,33,15.10
2015,07,11,05,34,15.10
2015,07,11,05,35,15.10
2015,07,11,05,36,15.10
2015,07,11,05,37,15.10
2015,07,11,05,38,15.10
2015,07,11,05,39,15.10
2015,07,11,05,40,15.10
2015,07,11,05,41,15.10
2015,07,11,05,42,15.10
2015,07,11,05,43,15.10
2015,07,11,05,44,15.10
2015,07,11,05,45,15.10
2015,07,11,05,46,15.20
2015,07,11,05,47,15.20
2015,07,11,05,48,15.20
2015,07,11,05,49,15.10
2015,07,11,05,50,15.10
2015,07,11,05,51,15.10
2015,07,11,05,52,15.10
2015,07,11,05,53,15.10
2015,07,11,05,54,15.10
2015,07,11,05,55,15.10
2015,07,11,05,56,15.10
2015,07,11,05,57,15.10
2015,07,11,05,58,15.10
2015,07,11,05,59,15.10
2015,07,11,06,00,15.10
2015,07,11,06,01,15.10
2015,07,11,06,02,15.10
2015,07,11,06,03,15.10
2015,07,11,06,04,15.10
2015,07,11,06,05,15.10
2015,07,11,06,06,15.10
2015,07,11,06,07,15.10
2015,07,11,06,08,15.10
2015,07,11,06,09,15.10
2015,07,11,06,10,15.10
2015,07,11,06,11,15.10
2015,07,11,06,12,15.10
2015,07,11,06,13,15.10
2015,07,11,06,14,15.10
2015,07,11,06,15,15.10
2015,07,11,06,16,15.10
2015,07,11,06,17,15.10
2015,07,11,06,18,15.10
2015,07,11,06,19,15.10
2015,07,11,06,20,15.20
2015,07,11,06,21,15.20
2015,07,11,06,22,15.20
2015,07,11,06,23,15.20
2015,07,11,06,24,15.20
2015,07,11,06,25,15.30
2015,07,11,06,26,15.30
2015,07,11,06,27,15.30
2015,07,11,06,28,15.30
2015,07,11,06,29,15.30
2015,07,11,06,30,15.30
2015,07,11,06,31,15.30
2015,07,11,06,32,15.40
2015,07,11,06,33,15.40
2015,07,11,06,34,15.40
2015,07,11,06,35,15.40
2015,07,11,06,36,15.40
2015,07,11,06,37,15.40
2015,07,11,06,38,15.40
2015,07,11,06,39,15.40
2015,07,11,06,40,15.40
2015,07,11,06,41,15.40
2015,07,11,06,42,15.40
2015,07,11,06,43,15.40
2015,07,11,06,44,15.40
2015,07,11,06,45,15.40
2015,07,11,06,46,15.40
2015,07,11,06,47,15.40
2015,07,11,06,48,15.40
2015,07,11,06,49,15.40
2015,07,11,06,50,15.40
2015,07,11,06,51,15.40
2015,07,11,06,52,15.50
2015,07,11,06,53,15.50
2015,07,11,06,54,15.50
2015,07,11,06,55,15.50
2015,07,11,06,56,15.50
2015,07,11,06,57,15.60
2015,07,11,06,58,15.60
2015,07,11,06,59,15.60
2015,07,11,07,00,15.60
2015,07,11,07,01,15.60
2015,07,11,07,02,15.60
2015,07,11,07,03,15.60
2015,07,11,07,04,15.60
2015,07,11,07,05,15.60
2015,07,11,07,06,15.60
2015,07,11,07,07,15.60
2015,07,11,07,08,15.60
2015,07,11,07,09,15.60
2015,07,11,07,10,15.60
2015,07,11,07,11,15.60
2015,07,11,07,12,15.60
2015,07,11,07,13,15.60
2015,07,11,07,14,15.60
2015,07,11,07,15,15.50
2015,07,11,07,16,15.50
2015,07,11,07,17,15.50
2015,07,11,07,18,15.50
2015,07,11,07,19,15.50
2015,07,11,07,20,15.50
2015,07,11,07,21,15.50
2015,07,11,07,22,15.50
2015,07,11,07,23,15.50
2015,07,11,07,24,15.50
2015,07,11,07,25,15.50
2015,07,11,07,26,15.50
2015,07,11,07,27,15.50
2015,07,11,07,28,15.50
2015,07,11,07,29,15.50
2015,07,11,07,30,15.50
2015,07,11,07,31,15.50
2015,07,11,07,32,15.50
2015,07,11,07,33,15.50
2015,07,11,07,34,15.50
2015,07,11,07,35,15.50
2015,07,11,07,36,15.50
2015,07,11,07,37,15.50
2015,07,11,07,38,15.50
2015,07,11,07,39,15.50
2015,07,11,07,40,15.50
2015,07,11,07,41,15.50
2015,07,11,07,42,15.50
2015,07,11,07,43,15.50
2015,07,11,07,44,15.50
2015,07,11,07,45,15.50
2015,07,11,07,46,15.40
2015,07,11,07,47,15.40
2015,07,11,07,48,15.40
2015,07,11,07,49,15.40
2015,07,11,07,50,15.40
2015,07,11,07,51,15.40
2015,07,11,07,52,15.40
2015,07,11,07,53,15.40
2015,07,11,07,54,15.40
2015,07,11,07,55,15.40
2015,07,11,07,56,15.40
2015,07,11,07,57,15.40
2015,07,11,07,58,15.40
2015,07,11,07,59,15.40
2015,07,11,08,00,15.40
2015,07,11,08,01,15.40
2015,07,11,08,02,15.50
2015,07,11,08,03,15.50
2015,07,11,08,04,15.50
2015,07,11,08,05,15.50
2015,07,11,08,06,15.50
2015,07,11,08,07,15.50
2015,07,11,08,08,15.50
2015,07,11,08,09,15.50
2015,07,11,08,10,15.60
2015,07,11,08,11,15.60
2015,07,11,08,12,15.60
2015,07,11,08,13,15.60
2015,07,11,08,14,15.60
2015,07,11,08,15,15.60
2015,07,11,08,16,15.60
2015,07,11,08,17,15.60
2015,07,11,08,18,15.60
2015,07,11,08,19,15.60
2015,07,11,08,20,15.60
2015,07,11,08,21,15.60
2015,07,11,08,22,15.60
2015,07,11,08,23,15.50
2015,07,11,08,24,15.60
2015,07,11,08,25,15.60
2015,07,11,08,26,15.50
2015,07,11,08,27,15.50
2015,07,11,08,28,15.50
2015,07,11,08,29,15.60
2015,07,11,08,30,15.60
2015,07,11,08,31,15.60
2015,07,11,08,32,15.60
2015,07,11,08,33,15.60
2015,07,11,08,34,15.60
2015,07,11,08,35,15.60
2015,07,11,08,36,15.60
2015,07,11,08,37,15.60
2015,07,11,08,38,15.60
2015,07,11,08,39,15.60
2015,07,11,08,40,15.60
2015,07,11,08,41,15.60
2015,07,11,08,42,15.60
2015,07,11,08,43,15.60
2015,07,11,08,44,15.60
2015,07,11,08,45,15.60
2015,07,11,08,46,15.60
2015,07,11,08,47,15.60
2015,07,11,08,48,15.60
2015,07,11,08,49,15.70
2015,07,11,08,50,15.70
2015,07,11,08,51,15.70
2015,07,11,08,52,15.70
2015,07,11,08,53,15.70
2015,07,11,08,54,15.70
2015,07,11,08,55,15.70
2015,07,11,08,56,15.70
2015,07,11,08,57,15.70
2015,07,11,08,58,15.70
2015,07,11,08,59,15.70
2015,07,11,09,00,15.70
2015,07,11,09,01,15.80
2015,07,11,09,02,15.80
2015,07,11,09,03,15.80
2015,07,11,09,04,15.80
2015,07,11,09,05,15.80
2015,07,11,09,06,15.80
2015,07,11,09,07,15.80
2015,07,11,09,08,15.80
2015,07,11,09,09,15.80
2015,07,11,09,10,15.80
2015,07,11,09,11,15.80
2015,07,11,09,12,15.80
2015,07,11,09,13,15.80
2015,07,11,09,14,15.80
2015,07,11,09,15,15.80
2015,07,11,09,16,15.80
2015,07,11,09,17,15.80
2015,07,11,09,18,15.80
2015,07,11,09,19,15.80
2015,07,11,09,20,15.80
2015,07,11,09,21,15.80
2015,07,11,09,22,15.80
2015,07,11,09,23,15.80
2015,07,11,09,24,15.80
2015,07,11,09,25,15.80
2015,07,11,09,26,15.90
2015,07,11,09,27,15.90
2015,07,11,09,28,15.90
2015,07,11,09,29,15.90
2015,07,11,09,30,15.90
2015,07,11,09,31,15.90
2015,07,11,09,32,15.90
2015,07,11,09,33,15.90
2015,07,11,09,34,15.90
2015,07,11,09,35,15.90
2015,07,11,09,36,15.90
2015,07,11,09,37,15.90
2015,07,11,09,38,15.90
2015,07,11,09,39,15.90
2015,07,11,09,40,15.90
2015,07,11,09,41,15.90
2015,07,11,09,42,15.90
2015,07,11,09,43,15.90
2015,07,11,09,44,16.00
2015,07,11,09,45,16.00
2015,07,11,09,46,16.00
2015,07,11,09,47,16.00
2015,07,11,09,48,16.00
2015,07,11,09,49,16.00
2015,07,11,09,50,16.00
2015,07,11,09,51,16.00
2015,07,11,09,52,16.00
2015,07,11,09,53,16.10
2015,07,11,09,54,16.10
2015,07,11,09,55,16.10
2015,07,11,09,56,16.10
2015,07,11,09,57,16.00
2015,07,11,09,58,16.00
2015,07,11,09,59,16.00
2015,07,11,10,00,16.00
2015,07,11,10,01,16.00
2015,07,11,10,02,16.00
2015,07,11,10,03,16.00
2015,07,11,10,04,16.00
2015,07,11,10,05,16.10
2015,07,11,10,06,16.10
2015,07,11,10,07,16.10
2015,07,11,10,08,16.10
2015,07,11,10,09,16.10
2015,07,11,10,10,16.10
2015,07,11,10,11,16.10
2015,07,11,10,12,16.10
2015,07,11,10,13,16.10
2015,07,11,10,14,16.10
2015,07,11,10,15,16.10
2015,07,11,10,16,16.10
2015,07,11,10,17,16.10
2015,07,11,10,18,16.10
2015,07,11,10,19,16.10
2015,07,11,10,20,16.10
2015,07,11,10,21,16.10
2015,07,11,10,22,16.10
2015,07,11,10,23,16.10
2015,07,11,10,24,16.10
2015,07,11,10,25,16.10
2015,07,11,10,26,16.10
2015,07,11,10,27,16.10
2015,07,11,10,28,16.10
2015,07,11,10,29,16.20
2015,07,11,10,30,16.20
2015,07,11,10,31,16.20
2015,07,11,10,32,16.20
2015,07,11,10,33,16.20
2015,07,11,10,34,16.20
2015,07,11,10,35,16.20
2015,07,11,10,36,16.20
2015,07,11,10,37,16.20
2015,07,11,10,38,16.20
2015,07,11,10,39,16.10
2015,07,11,10,40,16.20
2015,07,11,10,41,16.20
2015,07,11,10,42,16.20
2015,07,11,10,43,16.20
2015,07,11,10,44,16.20
2015,07,11,10,45,16.20
2015,07,11,10,46,16.20
2015,07,11,10,47,16.20
2015,07,11,10,48,16.20
2015,07,11,10,49,16.20
2015,07,11,10,50,16.20
2015,07,11,10,51,16.20
2015,07,11,10,52,16.20
2015,07,11,10,53,16.20
2015,07,11,10,54,16.20
2015,07,11,10,55,16.20
2015,07,11,10,56,16.10
2015,07,11,10,57,16.10
2015,07,11,10,58,16.10
2015,07,11,10,59,16.10
2015,07,11,11,00,16.10
2015,07,11,11,01,16.10
2015,07,11,11,02,16.10
2015,07,11,11,03,16.10
2015,07,11,11,04,16.10
2015,07,11,11,05,16.10
2015,07,11,11,06,16.10
2015,07,11,11,07,16.10
2015,07,11,11,08,16.10
2015,07,11,11,09,16.10
2015,07,11,11,10,16.10
2015,07,11,11,11,16.10
2015,07,11,11,12,16.10
2015,07,11,11,13,16.10
2015,07,11,11,14,16.10
2015,07,11,11,15,16.10
2015,07,11,11,16,16.10
2015,07,11,11,17,16.10
2015,07,11,11,18,16.10
2015,07,11,11,19,16.10
2015,07,11,11,20,16.10
2015,07,11,11,21,16.10
2015,07,11,11,22,16.10
2015,07,11,11,23,16.10
2015,07,11,11,24,16.10
2015,07,11,11,25,16.10
2015,07,11,11,26,16.10
2015,07,11,11,27,16.10
2015,07,11,11,28,16.10
2015,07,11,11,29,16.10
2015,07,11,11,30,16.10
2015,07,11,11,31,16.20
2015,07,11,11,32,16.20
2015,07,11,11,33,16.20
2015,07,11,11,34,16.20
2015,07,11,11,35,16.20
2015,07,11,11,36,16.20
2015,07,11,11,37,16.10
2015,07,11,11,38,16.10
2015,07,11,11,39,16.10
2015,07,11,11,40,16.10
2015,07,11,11,41,16.20
2015,07,11,11,42,16.10
2015,07,11,11,43,16.10
2015,07,11,11,44,16.10
2015,07,11,11,45,16.10
2015,07,11,11,46,16.10
2015,07,11,11,47,16.10
2015,07,11,11,48,16.10
2015,07,11,11,49,16.10
2015,07,11,11,50,16.10
2015,07,11,11,51,16.10
2015,07,11,11,52,16.10
2015,07,11,11,53,16.20
2015,07,11,11,54,16.10
2015,07,11,11,55,16.10
2015,07,11,11,56,16.10
2015,07,11,11,57,16.10
2015,07,11,11,58,16.10
2015,07,11,11,59,16.10
2015,07,11,12,00,16.10
2015,07,11,12,01,16.10
2015,07,11,12,02,16.10
2015,07,11,12,03,16.10
2015,07,11,12,04,16.10
2015,07,11,12,05,16.10
2015,07,11,12,06,16.10
2015,07,11,12,07,16.10
2015,07,11,12,08,16.10
2015,07,11,12,09,16.10
2015,07,11,12,10,16.10
2015,07,11,12,11,16.00
2015,07,11,12,12,16.00
2015,07,11,12,13,16.00
2015,07,11,12,14,16.00
2015,07,11,12,15,16.10
2015,07,11,12,16,16.10
2015,07,11,12,17,16.10
2015,07,11,12,18,16.10
2015,07,11,12,19,16.10
2015,07,11,12,20,16.10
2015,07,11,12,21,16.10
2015,07,11,12,22,16.10
2015,07,11,12,23,16.10
2015,07,11,12,24,16.10
2015,07,11,12,25,16.10
2015,07,11,12,26,16.10
2015,07,11,12,27,16.20
2015,07,11,12,28,16.20
2015,07,11,12,29,16.20
2015,07,11,12,30,16.20
2015,07,11,12,31,16.20
2015,07,11,12,32,16.20
2015,07,11,12,33,16.20
2015,07,11,12,34,16.20
2015,07,11,12,35,16.20
2015,07,11,12,36,16.20
2015,07,11,12,37,16.20
2015,07,11,12,38,16.20
2015,07,11,12,39,16.20
2015,07,11,12,40,16.20
2015,07,11,12,41,16.20
2015,07,11,12,42,16.20
2015,07,11,12,43,16.20
2015,07,11,12,44,16.10
2015,07,11,12,45,16.10
2015,07,11,12,46,16.10
2015,07,11,12,47,16.10
2015,07,11,12,48,16.10
2015,07,11,12,49,16.20
2015,07,11,12,50,16.20
2015,07,11,12,51,16.20
2015,07,11,12,52,16.20
2015,07,11,12,53,16.20
2015,07,11,12,54,16.20
2015,07,11,12,55,16.20
2015,07,11,12,56,16.20
2015,07,11,12,57,16.20
2015,07,11,12,58,16.20
2015,07,11,12,59,16.20
2015,07,11,13,00,16.20
2015,07,11,13,01,16.20
2015,07,11,13,02,16.30
2015,07,11,13,03,16.30
2015,07,11,13,04,16.30
2015,07,11,13,05,16.30
2015,07,11,13,06,16.30
2015,07,11,13,07,16.30
2015,07,11,13,08,16.30
2015,07,11,13,09,16.30
2015,07,11,13,10,16.30
2015,07,11,13,11,16.30
2015,07,11,13,12,16.30
2015,07,11,13,13,16.30
2015,07,11,13,14,16.30
2015,07,11,13,15,16.30
2015,07,11,13,16,16.30
2015,07,11,13,17,16.30
2015,07,11,13,18,16.30
2015,07,11,13,19,16.30
2015,07,11,13,20,16.30
2015,07,11,13,21,16.30
2015,07,11,13,22,16.30
2015,07,11,13,23,16.30
2015,07,11,13,24,16.30
2015,07,11,13,25,16.30
2015,07,11,13,26,16.40
2015,07,11,13,27,16.40
2015,07,11,13,28,16.40
2015,07,11,13,29,16.40
2015,07,11,13,30,16.40
2015,07,11,13,31,16.40
2015,07,11,13,32,16.40
2015,07,11,13,33,16.50
2015,07,11,13,34,16.50
2015,07,11,13,35,16.40
2015,07,11,13,36,16.40
2015,07,11,13,37,16.40
2015,07,11,13,38,16.40
2015,07,11,13,39,16.40
2015,07,11,13,40,16.40
2015,07,11,13,41,16.40
2015,07,11,13,42,16.40
2015,07,11,13,43,16.40
2015,07,11,13,44,16.40
2015,07,11,13,45,16.40
2015,07,11,13,46,16.40
2015,07,11,13,47,16.40
2015,07,11,13,48,16.40
2015,07,11,13,49,16.40
2015,07,11,13,50,16.40
2015,07,11,13,51,16.40
2015,07,11,13,52,16.40
2015,07,11,13,53,16.50
2015,07,11,13,54,16.50
2015,07,11,13,55,16.50
2015,07,11,13,56,16.50
2015,07,11,13,57,16.50
2015,07,11,13,58,16.50
2015,07,11,13,59,16.40
2015,07,11,14,00,16.40
2015,07,11,14,01,16.40
2015,07,11,14,02,16.40
2015,07,11,14,03,16.40
2015,07,11,14,04,16.40
2015,07,11,14,05,16.40
2015,07,11,14,06,16.40
2015,07,11,14,07,16.50
2015,07,11,14,08,16.50
2015,07,11,14,09,16.50
2015,07,11,14,10,16.50
2015,07,11,14,11,16.50
2015,07,11,14,12,16.50
2015,07,11,14,13,16.50
2015,07,11,14,14,16.50
2015,07,11,14,15,16.50
2015,07,11,14,16,16.50
2015,07,11,14,17,16.50
2015,07,11,14,18,16.50
2015,07,11,14,19,16.50
2015,07,11,14,20,16.60
2015,07,11,14,21,16.60
2015,07,11,14,22,16.60
2015,07,11,14,23,16.60
2015,07,11,14,24,16.60
2015,07,11,14,25,16.60
2015,07,11,14,26,16.60
2015,07,11,14,27,16.70
2015,07,11,14,28,16.70
2015,07,11,14,29,16.70
2015,07,11,14,30,16.70
2015,07,11,14,31,16.70
2015,07,11,14,32,16.70
2015,07,11,14,33,16.70
2015,07,11,14,34,16.70
2015,07,11,14,35,16.70
2015,07,11,14,36,16.70
2015,07,11,14,37,16.70
2015,07,11,14,38,16.70
2015,07,11,14,39,16.80
2015,07,11,14,40,16.70
2015,07,11,14,41,16.70
2015,07,11,14,42,16.70
2015,07,11,14,43,16.70
2015,07,11,14,44,16.70
2015,07,11,14,45,16.70
2015,07,11,14,46,16.60
2015,07,11,14,47,16.60
2015,07,11,14,48,16.60
2015,07,11,14,49,16.60
2015,07,11,14,50,16.60
2015,07,11,14,51,16.60
2015,07,11,14,52,16.60
2015,07,11,14,53,16.60
2015,07,11,14,54,16.70
2015,07,11,14,55,16.70
2015,07,11,14,56,16.70
2015,07,11,14,57,16.70
2015,07,11,14,58,16.80
2015,07,11,14,59,16.80
2015,07,11,15,00,16.70
2015,07,11,15,01,16.70
2015,07,11,15,02,16.80
2015,07,11,15,03,16.80
2015,07,11,15,04,16.80
2015,07,11,15,05,16.80
2015,07,11,15,06,16.80
2015,07,11,15,07,16.80
2015,07,11,15,08,16.80
2015,07,11,15,09,16.80
2015,07,11,15,10,16.80
2015,07,11,15,11,16.80
2015,07,11,15,12,16.80
2015,07,11,15,13,16.80
2015,07,11,15,14,16.80
2015,07,11,15,15,16.80
2015,07,11,15,16,16.80
2015,07,11,15,17,16.80
2015,07,11,15,18,16.80
2015,07,11,15,19,16.80
2015,07,11,15,20,16.80
2015,07,11,15,21,16.80
2015,07,11,15,22,16.80
2015,07,11,15,23,16.80
2015,07,11,15,24,16.80
2015,07,11,15,25,16.80
2015,07,11,15,26,16.80
2015,07,11,15,27,16.80
2015,07,11,15,28,16.80
2015,07,11,15,29,16.70
2015,07,11,15,30,16.70
2015,07,11,15,31,16.70
2015,07,11,15,32,16.70
2015,07,11,15,33,16.70
2015,07,11,15,34,16.70
2015,07,11,15,35,16.70
2015,07,11,15,36,16.70
2015,07,11,15,37,16.70
2015,07,11,15,38,16.70
2015,07,11,15,39,16.70
2015,07,11,15,40,16.70
2015,07,11,15,41,16.70
2015,07,11,15,42,16.70
2015,07,11,15,43,16.70
2015,07,11,15,44,16.70
2015,07,11,15,45,16.70
2015,07,11,15,46,16.60
2015,07,11,15,47,16.60
2015,07,11,15,48,16.60
2015,07,11,15,49,16.60
2015,07,11,15,50,16.60
2015,07,11,15,51,16.60
2015,07,11,15,52,16.60
2015,07,11,15,53,16.60
2015,07,11,15,54,16.60
2015,07,11,15,55,16.60
2015,07,11,15,56,16.60
2015,07,11,15,57,16.70
2015,07,11,15,58,16.60
2015,07,11,15,59,16.60
2015,07,11,16,00,16.60
2015,07,11,16,01,16.60
2015,07,11,16,02,16.60
2015,07,11,16,03,16.60
2015,07,11,16,04,16.60
2015,07,11,16,05,16.60
2015,07,11,16,06,16.50
2015,07,11,16,07,16.50
2015,07,11,16,08,16.50
2015,07,11,16,09,16.40
2015,07,11,16,10,16.40
2015,07,11,16,11,16.40
2015,07,11,16,12,16.40
2015,07,11,16,13,16.50
2015,07,11,16,14,16.60
2015,07,11,16,15,16.60
2015,07,11,16,16,16.60
2015,07,11,16,17,16.60
2015,07,11,16,18,16.60
2015,07,11,16,19,16.60
2015,07,11,16,20,16.60
2015,07,11,16,21,16.60
2015,07,11,16,22,16.60
2015,07,11,16,23,16.60
2015,07,11,16,24,16.60
2015,07,11,16,25,16.70
2015,07,11,16,26,16.70
2015,07,11,16,27,16.70
2015,07,11,16,28,16.60
2015,07,11,16,29,16.60
2015,07,11,16,30,16.60
2015,07,11,16,31,16.60
2015,07,11,16,32,16.60
2015,07,11,16,33,16.50
2015,07,11,16,34,16.60
2015,07,11,16,35,16.60
2015,07,11,16,36,16.50
2015,07,11,16,37,16.50
2015,07,11,16,38,16.50
2015,07,11,16,39,16.40
2015,07,11,16,40,16.40
2015,07,11,16,41,16.40
2015,07,11,16,42,16.40
2015,07,11,16,43,16.40
2015,07,11,16,44,16.40
2015,07,11,16,45,16.30
2015,07,11,16,46,16.30
2015,07,11,16,47,16.30
2015,07,11,16,48,16.30
2015,07,11,16,49,16.30
2015,07,11,16,50,16.40
2015,07,11,16,51,16.40
2015,07,11,16,52,16.40
2015,07,11,16,53,16.40
2015,07,11,16,54,16.40
2015,07,11,16,55,16.40
2015,07,11,16,56,16.40
2015,07,11,16,57,16.40
2015,07,11,16,58,16.40
2015,07,11,16,59,16.40
2015,07,11,17,00,16.40
2015,07,11,17,01,16.40
2015,07,11,17,02,16.40
2015,07,11,17,03,16.40
2015,07,11,17,04,16.40
2015,07,11,17,05,16.30
2015,07,11,17,06,16.30
2015,07,11,17,07,16.30
2015,07,11,17,08,16.30
2015,07,11,17,09,16.30
2015,07,11,17,10,16.30
2015,07,11,17,11,16.30
2015,07,11,17,12,16.30
2015,07,11,17,13,16.30
2015,07,11,17,14,16.30
2015,07,11,17,15,16.20
2015,07,11,17,16,16.30
2015,07,11,17,17,16.30
2015,07,11,17,18,16.20
2015,07,11,17,19,16.30
2015,07,11,17,20,16.30
2015,07,11,17,21,16.30
2015,07,11,17,22,16.30
2015,07,11,17,23,16.30
2015,07,11,17,24,16.20
2015,07,11,17,25,16.20
2015,07,11,17,26,16.30
2015,07,11,17,27,16.30
2015,07,11,17,28,16.30
2015,07,11,17,29,16.30
2015,07,11,17,30,16.30
2015,07,11,17,31,16.20
2015,07,11,17,32,16.20
2015,07,11,17,33,16.20
2015,07,11,17,34,16.20
2015,07,11,17,35,16.30
2015,07,11,17,36,16.30
2015,07,11,17,37,16.20
2015,07,11,17,38,16.20
2015,07,11,17,39,16.20
2015,07,11,17,40,16.20
2015,07,11,17,41,16.20
2015,07,11,17,42,16.20
2015,07,11,17,43,16.20
2015,07,11,17,44,16.20
2015,07,11,17,45,16.20
2015,07,11,17,46,16.20
2015,07,11,17,47,16.20
2015,07,11,17,48,16.20
2015,07,11,17,49,16.20
2015,07,11,17,50,16.20
2015,07,11,17,51,16.20
2015,07,11,17,52,16.30
2015,07,11,17,53,16.30
2015,07,11,17,54,16.30
2015,07,11,17,55,16.30
2015,07,11,17,56,16.30
2015,07,11,17,57,16.20
2015,07,11,17,58,16.20
2015,07,11,17,59,16.20
2015,07,11,18,00,16.20
2015,07,11,18,01,16.20
2015,07,11,18,02,16.20
2015,07,11,18,03,16.20
2015,07,11,18,04,16.20
2015,07,11,18,05,16.20
2015,07,11,18,06,16.20
2015,07,11,18,07,16.20
2015,07,11,18,08,16.20
2015,07,11,18,09,16.20
2015,07,11,18,10,16.20
2015,07,11,18,11,16.20
2015,07,11,18,12,16.20
2015,07,11,18,13,16.20
2015,07,11,18,14,16.20